Terminal Aerodrome Forecast
Issued by NWS Newport/Morehead City, NC

Home | Current Version | Previous Version | Text Only | Print | Product List | Glossary On
Versions: 1 2 3 4 5 6 7 8 9 10 11 12 13 14 15 16 17 18 19 20 21 22 23
000
FTUS42 KMHX 041128
TAFEWN
TAF
KEWN 041128Z 0412/0512 33005KT P6SM FEW050
     FM041900 05007KT P6SM VCSH SCT050
     FM042300 04005KT P6SM SCT050
     FM050800 02003KT P6SM BKN015=

USA.gov is the U.S. government's official web portal to all federal, state and local government web resources and services.